Terminal Aerodrome Forecast
Issued by NWS Honolulu, HI

Home | Current Version | Previous Version | Text Only | Print | Product List | Glossary On
Versions: 1 2 3 4 5 6 7 8 9 10 11 12 13 14 15 16 17 18 19 20 21 22 23 24 25 26
000
FTPA31 PHFO 270710 AAA
TAFHNL
TAF AMD
PHNL 270710Z 2707/2812 06012G18KT P6SM FEW025 SCT050 BKN120
     FM272000 07015G22KT P6SM FEW025 SCT050
     FM280500 06011KT P6SM SCT040=

USA.gov is the U.S. government's official web portal to all federal, state and local government web resources and services.